Location: Oshawa
(43.9000°N, 78.8670°W)
Time: 06:00:38
(UTC-05:00)

Transit 2A Rocket - Visible Passes

Search period start: 28 November 2014 00:00
Search period end: 08 December 2014 00:00
Orbit: 588 x 919 km, 66.7° (Epoch: 27 November)

Date Brightness Start Highest point End Pass type
(mag) Time Alt. Az. Time Alt. Az. Time Alt. Az.
28 Nov 5.8 18:00:59 10° NW 18:06:45 64° WSW 18:12:45 10° SSE visible
29 Nov 5.3 17:19:05 10° NNW 17:24:55 83° ENE 17:31:01 10° SSE visible
29 Nov 8.1 19:03:13 10° WNW 19:06:59 18° WSW 19:10:49 10° SW visible
30 Nov 7.4 18:20:28 10° NW 18:25:25 29° WSW 18:30:31 10° SSW visible
01 Dec 6.6 17:38:12 10° NW 17:43:45 45° WSW 17:49:31 10° S visible
02 Dec 8.2 06:35:07 10° SE 06:37:25 14° ESE 06:39:48 10° ENE visible
02 Dec 8.7 18:41:51 10° W 18:43:47 12° WSW 18:45:44 10° WSW visible
03 Dec 8.2 17:58:08 10° WNW 18:02:18 20° WSW 18:06:33 10° SSW visible
04 Dec 6.6 06:51:30 10° S 06:55:43 37° ESE 07:00:19 10° NE visible
04 Dec 7.5 17:15:32 10° NW 17:20:42 32° WSW 17:26:01 10° S visible
05 Dec 7.6 06:10:41 10° SSE 06:14:09 21° ESE 06:17:52 10° ENE visible
06 Dec 8.2 05:31:02 10° ESE 05:32:42 12° ESE 05:34:25 10° E visible
06 Dec 8.6 17:36:19 10° WNW 17:39:06 14° WSW 17:41:55 10° SW visible
07 Dec 5.5 06:28:04 10° SSW 06:32:36 57° ESE 06:37:37 10° NE visible
